Darstellungsparameter: Aktuell verwendete Einstellungen:
Skalierung der Graphiken ... ?
xyx+y,   Skalierungsfaktor:      Skalierung: Modus: x, Faktor: 1
Darstellungszeitraum ... ?
Vom - - bis: - -   Zeitraum: 03.07.2019 - 03.07.2019
Min/Max/Avg-Anzeige ... ?
Zeige MMA aktuell
Zeige MMA Monat
Zeige MMA alles
Zeige --A aktuell
Zeige --A Monat
Zeige --A alles
Keine MMA-Anzeige
MMA:
Keine MMA-Graphiken
MMA-Basis: 03.07.2019 - 03.07.2019
Quicknavigation für Darstellung... ?
Tage:      1T, 2T, 3T, 5T -1T -2T -3T -5T +1T +2T +3T +5T
Wochen: 1W, 2W, 3W -1W -2W -3W +1W +2W +3W
Monate: 1M, 3M, 6M -1M -3M -6M +1M +3M +6M
Jahre:    1J, 3J, 5J, 10J -1J -3J -5J -10J +1J +3J +5J +10J
Nutze für die Darstellung ... ?
Originaldaten oder Mittelwerte auf ...
Stundenbasis Tagesbasis Wochenbasis
Monatsbasis Jahresbasis      Datenbasis: Original-Daten
Darstellen als:
Statistik (Auto) Statistik J:M      Darstellung:
Zur Graphik,    zurück zur Übersicht aller Sensoren.
 
Tabellarische Datenbersicht: ?
 
Sensor: Nr:Datum:Temp:Feuchte:Taupunkt:
Aussen-T/F 1 03-07-2019 00:00:00 15.7 C 65 % 9.15 C
2 03-07-2019 00:05:00 15.6 C 65 % 9.05 C
3 03-07-2019 00:10:00 15.3 C 66 % 8.99 C
4 03-07-2019 00:15:00 15.2 C 67 % 9.12 C
5 03-07-2019 00:20:00 15.1 C 67 % 9.02 C
6 03-07-2019 00:25:00 14.9 C 68 % 9.05 C
7 03-07-2019 00:30:00 14.7 C 68 % 8.86 C
8 03-07-2019 00:35:00 14.5 C 69 % 8.89 C
9 03-07-2019 00:40:00 14.3 C 70 % 8.91 C
10 03-07-2019 00:45:00 14.2 C 70 % 8.81 C
11 03-07-2019 00:50:00 14.2 C 71 % 9.02 C
12 03-07-2019 00:55:00 14 C 71 % 8.83 C
13 03-07-2019 01:00:00 13.9 C 72 % 8.94 C
14 03-07-2019 01:05:00 13.7 C 73 % 8.95 C
15 03-07-2019 01:10:00 13.6 C 72 % 8.65 C
16 03-07-2019 01:15:00 13.4 C 73 % 8.66 C
17 03-07-2019 01:20:00 13.3 C 73 % 8.57 C
18 03-07-2019 01:25:00 13.2 C 74 % 8.67 C
19 03-07-2019 01:30:00 13.2 C 74 % 8.67 C
20 03-07-2019 01:35:00 13.1 C 74 % 8.58 C
21 03-07-2019 01:40:00 12.9 C 74 % 8.38 C
22 03-07-2019 01:45:00 12.9 C 75 % 8.58 C
23 03-07-2019 01:50:00 12.8 C 76 % 8.68 C
24 03-07-2019 01:55:00 12.8 C 75 % 8.48 C
25 03-07-2019 02:00:00 12.7 C 76 % 8.58 C
Sensor: Nr:Datum:Temp:Feuchte:Taupunkt:
Aussen-T/F 26 03-07-2019 02:05:00 12.7 C 76 % 8.58 C
27 03-07-2019 02:10:00 12.6 C 77 % 8.68 C
28 03-07-2019 02:15:00 12.5 C 77 % 8.58 C
29 03-07-2019 02:20:00 12.4 C 77 % 8.49 C
30 03-07-2019 02:25:00 12.4 C 77 % 8.49 C
31 03-07-2019 02:30:00 12.3 C 77 % 8.39 C
32 03-07-2019 02:35:00 12.2 C 78 % 8.48 C
33 03-07-2019 02:40:00 12.1 C 78 % 8.38 C
34 03-07-2019 02:45:00 12 C 78 % 8.29 C
35 03-07-2019 02:50:00 11.9 C 78 % 8.19 C
36 03-07-2019 02:55:00 11.9 C 78 % 8.19 C
37 03-07-2019 03:00:00 11.8 C 79 % 8.28 C
38 03-07-2019 03:05:00 11.8 C 79 % 8.28 C
39 03-07-2019 03:10:00 11.7 C 80 % 8.37 C
40 03-07-2019 03:15:00 11.7 C 80 % 8.37 C
41 03-07-2019 03:20:00 11.6 C 80 % 8.27 C
42 03-07-2019 03:25:00 11.6 C 80 % 8.27 C
43 03-07-2019 03:30:00 11.4 C 81 % 8.26 C
44 03-07-2019 03:35:00 11.4 C 81 % 8.26 C
45 03-07-2019 03:40:00 11.3 C 81 % 8.16 C
46 03-07-2019 03:45:00 11.2 C 81 % 8.06 C
47 03-07-2019 03:50:00 11.1 C 82 % 8.15 C
48 03-07-2019 03:55:00 11.1 C 82 % 8.15 C
49 03-07-2019 04:00:00 11 C 82 % 8.05 C
50 03-07-2019 04:05:00 10.9 C 82 % 7.95 C
Sensor: Nr:Datum:Temp:Feuchte:Taupunkt:
Aussen-T/F 51 03-07-2019 04:10:00 10.8 C 82 % 7.85 C
52 03-07-2019 04:15:00 10.8 C 83 % 8.03 C
53 03-07-2019 04:20:00 10.7 C 83 % 7.93 C
54 03-07-2019 04:25:00 10.7 C 83 % 7.93 C
55 03-07-2019 04:30:00 10.6 C 83 % 7.84 C
56 03-07-2019 04:35:00 10.6 C 84 % 8.01 C
57 03-07-2019 04:40:00 10.5 C 84 % 7.91 C
58 03-07-2019 04:45:00 10.4 C 84 % 7.82 C
59 03-07-2019 04:50:00 10.4 C 84 % 7.82 C
60 03-07-2019 04:55:00 10.4 C 85 % 7.99 C
61 03-07-2019 05:00:00 10.3 C 85 % 7.89 C
62 03-07-2019 05:05:00 10.3 C 85 % 7.89 C
63 03-07-2019 05:10:00 10.3 C 85 % 7.89 C
64 03-07-2019 05:15:00 10.2 C 85 % 7.79 C
65 03-07-2019 05:20:00 10.1 C 85 % 7.7 C
66 03-07-2019 05:25:00 10.1 C 86 % 7.87 C
67 03-07-2019 05:30:00 10.1 C 86 % 7.87 C
68 03-07-2019 05:35:00 10 C 86 % 7.77 C
69 03-07-2019 05:40:00 10 C 86 % 7.77 C
70 03-07-2019 05:45:00 9.9 C 87 % 7.84 C
71 03-07-2019 05:50:00 10 C 87 % 7.94 C
72 03-07-2019 05:55:00 10 C 87 % 7.94 C
73 03-07-2019 06:00:00 10 C 87 % 7.94 C
74 03-07-2019 06:05:00 10 C 87 % 7.94 C
75 03-07-2019 06:10:00 10 C 88 % 8.11 C
Sensor: Nr:Datum:Temp:Feuchte:Taupunkt:
Aussen-T/F 76 03-07-2019 06:15:00 10.1 C 88 % 8.21 C
77 03-07-2019 06:20:00 10.1 C 88 % 8.21 C
78 03-07-2019 06:25:00 10.1 C 88 % 8.21 C
79 03-07-2019 06:30:00 10.1 C 88 % 8.21 C
80 03-07-2019 06:35:00 10.2 C 88 % 8.3 C
81 03-07-2019 06:40:00 10.2 C 88 % 8.3 C
82 03-07-2019 06:45:00 10.2 C 88 % 8.3 C
83 03-07-2019 06:50:00 10.3 C 89 % 8.57 C
84 03-07-2019 06:55:00 10.3 C 89 % 8.57 C
85 03-07-2019 07:00:00 10.4 C 89 % 8.67 C
86 03-07-2019 07:05:00 10.4 C 89 % 8.67 C
87 03-07-2019 07:10:00 10.6 C 89 % 8.86 C
88 03-07-2019 07:15:00 10.7 C 89 % 8.96 C
89 03-07-2019 07:20:00 10.7 C 89 % 8.96 C
90 03-07-2019 07:25:00 10.8 C 89 % 9.06 C
91 03-07-2019 07:30:00 10.9 C 89 % 9.16 C
92 03-07-2019 07:35:00 11.1 C 89 % 9.36 C
93 03-07-2019 07:40:00 11.2 C 88 % 9.29 C
94 03-07-2019 07:45:00 11.3 C 88 % 9.39 C
95 03-07-2019 07:50:00 11.4 C 88 % 9.49 C
96 03-07-2019 07:55:00 11.5 C 88 % 9.58 C
97 03-07-2019 08:00:00 11.6 C 88 % 9.68 C
98 03-07-2019 08:05:00 11.7 C 88 % 9.78 C
99 03-07-2019 08:10:00 11.9 C 87 % 9.81 C
100 03-07-2019 08:15:00 12 C 87 % 9.91 C
Sensor: Nr:Datum:Temp:Feuchte:Taupunkt:
Aussen-T/F 101 03-07-2019 08:20:00 12.1 C 87 % 10 C
102 03-07-2019 08:25:00 12.2 C 87 % 10.1 C
103 03-07-2019 08:30:00 12.3 C 86 % 10.03 C
104 03-07-2019 08:35:00 12.5 C 86 % 10.22 C
105 03-07-2019 08:40:00 12.7 C 86 % 10.42 C
106 03-07-2019 08:45:00 12.8 C 85 % 10.34 C
107 03-07-2019 08:50:00 12.9 C 84 % 10.26 C
108 03-07-2019 08:55:00 13.1 C 83 % 10.28 C
109 03-07-2019 09:00:00 13.3 C 84 % 10.66 C
110 03-07-2019 09:05:00 13.4 C 82 % 10.39 C
111 03-07-2019 09:10:00 13.7 C 80 % 10.32 C
112 03-07-2019 09:15:00 13.9 C 80 % 10.51 C
113 03-07-2019 09:20:00 14.1 C 80 % 10.71 C
114 03-07-2019 09:25:00 14.3 C 77 % 10.33 C
115 03-07-2019 09:30:00 14.5 C 76 % 10.32 C
116 03-07-2019 09:35:00 14.8 C 76 % 10.61 C
117 03-07-2019 09:40:00 15 C 74 % 10.41 C
118 03-07-2019 09:45:00 15.3 C 74 % 10.7 C
119 03-07-2019 09:50:00 15.6 C 71 % 10.37 C
120 03-07-2019 09:55:00 15.8 C 70 % 10.34 C
121 03-07-2019 10:00:00 16.1 C 69 % 10.42 C
122 03-07-2019 10:05:00 16.4 C 68 % 10.48 C
123 03-07-2019 10:10:00 16.7 C 66 % 10.32 C
124 03-07-2019 10:15:00 17 C 66 % 10.61 C
125 03-07-2019 10:20:00 17.4 C 63 % 10.29 C
Sensor: Nr:Datum:Temp:Feuchte:Taupunkt:
Aussen-T/F 126 03-07-2019 10:25:00 17.8 C 63 % 10.67 C
127 03-07-2019 10:30:00 18.3 C 60 % 10.41 C
128 03-07-2019 10:35:00 18.7 C 57 % 10.02 C
129 03-07-2019 10:40:00 19 C 56 % 10.03 C
130 03-07-2019 10:45:00 19.3 C 57 % 10.58 C
131 03-07-2019 10:50:00 19.7 C 53 % 9.86 C
132 03-07-2019 10:55:00 19.8 C 53 % 9.95 C
133 03-07-2019 11:00:00 19.7 C 54 % 10.14 C
134 03-07-2019 11:05:00 19.7 C 51 % 9.29 C
135 03-07-2019 11:10:00 19.7 C 52 % 9.58 C
136 03-07-2019 11:15:00 19.7 C 53 % 9.86 C
137 03-07-2019 11:20:00 19.7 C 51 % 9.29 C
138 03-07-2019 11:25:00 19.8 C 50 % 9.09 C
139 03-07-2019 11:30:00 19.9 C 51 % 9.47 C
140 03-07-2019 11:35:00 20.1 C 51 % 9.66 C
141 03-07-2019 11:40:00 20.2 C 50 % 9.45 C
142 03-07-2019 11:45:00 20.2 C 49 % 9.15 C
143 03-07-2019 11:50:00 20.3 C 49 % 9.24 C
144 03-07-2019 11:55:00 20.4 C 49 % 9.34 C
145 03-07-2019 12:00:00 20.4 C 50 % 9.64 C
146 03-07-2019 12:05:00 20.3 C 50 % 9.54 C
147 03-07-2019 12:10:00 20.3 C 49 % 9.24 C
148 03-07-2019 12:15:00 20.3 C 50 % 9.54 C
149 03-07-2019 12:20:00 20.5 C 50 % 9.73 C
150 03-07-2019 12:25:00 20.7 C 49 % 9.61 C
Sensor: Nr:Datum:Temp:Feuchte:Taupunkt:
Aussen-T/F 151 03-07-2019 12:30:00 20.8 C 49 % 9.7 C
152 03-07-2019 12:35:00 20.9 C 49 % 9.79 C
153 03-07-2019 12:40:00 21.1 C 48 % 9.67 C
154 03-07-2019 12:45:00 21.2 C 47 % 9.45 C
155 03-07-2019 12:50:00 21.3 C 47 % 9.54 C
156 03-07-2019 12:55:00 21.3 C 47 % 9.54 C
157 03-07-2019 13:00:00 21.1 C 47 % 9.36 C
158 03-07-2019 13:05:00 21.1 C 49 % 9.98 C
159 03-07-2019 13:10:00 21.3 C 47 % 9.54 C
160 03-07-2019 13:15:00 21.2 C 47 % 9.45 C
161 03-07-2019 13:20:00 21.1 C 47 % 9.36 C
162 03-07-2019 13:25:00 21.1 C 48 % 9.67 C
163 03-07-2019 13:30:00 21.4 C 45 % 8.99 C
164 03-07-2019 13:35:00 21.7 C 46 % 9.58 C
165 03-07-2019 13:40:00 21.7 C 46 % 9.58 C
166 03-07-2019 13:45:00 21.6 C 46 % 9.49 C
167 03-07-2019 13:50:00 21.7 C 46 % 9.58 C
168 03-07-2019 13:55:00 21.8 C 46 % 9.67 C
169 03-07-2019 14:00:00 21.8 C 48 % 10.31 C
170 03-07-2019 14:05:00 21.9 C 46 % 9.77 C
171 03-07-2019 14:10:00 21.8 C 46 % 9.67 C
172 03-07-2019 14:15:00 22 C 46 % 9.86 C
173 03-07-2019 14:20:00 22.2 C 45 % 9.71 C
174 03-07-2019 14:25:00 22.1 C 46 % 9.95 C
175 03-07-2019 14:30:00 22 C 46 % 9.86 C
Sensor: Nr:Datum:Temp:Feuchte:Taupunkt:
Aussen-T/F 176 03-07-2019 14:35:00 21.9 C 46 % 9.77 C
177 03-07-2019 14:40:00 21.9 C 46 % 9.77 C
178 03-07-2019 14:45:00 22 C 47 % 10.18 C
179 03-07-2019 14:50:00 22.1 C 47 % 10.27 C
180 03-07-2019 14:55:00 22 C 47 % 10.18 C
181 03-07-2019 15:00:00 22.1 C 46 % 9.95 C
182 03-07-2019 15:05:00 22.2 C 47 % 10.36 C
183 03-07-2019 15:10:00 22.3 C 45 % 9.8 C
184 03-07-2019 15:15:00 22.4 C 46 % 10.22 C
185 03-07-2019 15:20:00 22.6 C 44 % 9.74 C
186 03-07-2019 15:25:00 22.4 C 45 % 9.89 C
187 03-07-2019 15:30:00 22.4 C 46 % 10.22 C
188 03-07-2019 15:35:00 22.4 C 46 % 10.22 C
189 03-07-2019 15:40:00 22.5 C 46 % 10.31 C
190 03-07-2019 15:45:00 22.9 C 44 % 10.01 C
191 03-07-2019 15:50:00 23.5 C 45 % 10.89 C
192 03-07-2019 15:55:00 23.8 C 42 % 10.12 C
193 03-07-2019 16:00:00 23.9 C 41 % 9.85 C
194 03-07-2019 16:05:00 23.9 C 42 % 10.21 C
195 03-07-2019 16:10:00 24.4 C 42 % 10.66 C
196 03-07-2019 16:15:00 24.5 C 40 % 10.02 C
197 03-07-2019 16:20:00 24.7 C 39 % 9.82 C
198 03-07-2019 16:25:00 24.6 C 40 % 10.11 C
199 03-07-2019 16:30:00 24.7 C 40 % 10.2 C
200 03-07-2019 16:35:00 24.5 C 40 % 10.02 C
Sensor: Nr:Datum:Temp:Feuchte:Taupunkt:
Aussen-T/F 201 03-07-2019 16:40:00 24.5 C 39 % 9.65 C
202 03-07-2019 16:45:00 24.4 C 39 % 9.56 C
203 03-07-2019 16:50:00 24.6 C 39 % 9.73 C
204 03-07-2019 16:55:00 24.6 C 38 % 9.35 C
205 03-07-2019 17:00:00 24.5 C 39 % 9.65 C
206 03-07-2019 17:05:00 24.4 C 39 % 9.56 C
207 03-07-2019 17:10:00 24.6 C 39 % 9.73 C
208 03-07-2019 17:15:00 24.7 C 38 % 9.44 C
209 03-07-2019 17:20:00 24.8 C 38 % 9.53 C
210 03-07-2019 17:25:00 24.8 C 37 % 9.13 C
211 03-07-2019 17:30:00 24.4 C 38 % 9.17 C
212 03-07-2019 17:35:00 24.5 C 38 % 9.26 C
213 03-07-2019 17:40:00 24.7 C 37 % 9.04 C
214 03-07-2019 17:45:00 24.6 C 37 % 8.95 C
215 03-07-2019 17:50:00 24.4 C 38 % 9.17 C
216 03-07-2019 17:55:00 24.4 C 39 % 9.56 C
217 03-07-2019 18:00:00 24.7 C 37 % 9.04 C
218 03-07-2019 18:05:00 24.9 C 37 % 9.22 C
219 03-07-2019 18:10:00 25 C 37 % 9.31 C
220 03-07-2019 18:15:00 25.1 C 37 % 9.39 C
221 03-07-2019 18:20:00 24.8 C 37 % 9.13 C
222 03-07-2019 18:25:00 24.6 C 38 % 9.35 C
223 03-07-2019 18:30:00 24.6 C 38 % 9.35 C
224 03-07-2019 18:35:00 24.6 C 38 % 9.35 C
225 03-07-2019 18:40:00 24.5 C 37 % 8.86 C
Sensor: Nr:Datum:Temp:Feuchte:Taupunkt:
Aussen-T/F 226 03-07-2019 18:45:00 24.5 C 39 % 9.65 C
227 03-07-2019 18:50:00 24.6 C 38 % 9.35 C
228 03-07-2019 18:55:00 24.6 C 37 % 8.95 C
229 03-07-2019 19:00:00 24.3 C 37 % 8.69 C
230 03-07-2019 19:05:00 24.3 C 38 % 9.08 C
231 03-07-2019 19:10:00 24.3 C 38 % 9.08 C
232 03-07-2019 19:15:00 24.3 C 38 % 9.08 C
233 03-07-2019 19:20:00 24.2 C 38 % 8.99 C
234 03-07-2019 19:25:00 23.9 C 38 % 8.73 C
235 03-07-2019 19:30:00 23.8 C 39 % 9.02 C
236 03-07-2019 19:35:00 23.6 C 39 % 8.84 C
237 03-07-2019 19:40:00 23.3 C 40 % 8.95 C
238 03-07-2019 19:45:00 23.2 C 40 % 8.86 C
239 03-07-2019 19:50:00 23.2 C 41 % 9.23 C
240 03-07-2019 19:55:00 23.1 C 40 % 8.77 C
241 03-07-2019 20:00:00 22.9 C 41 % 8.96 C
242 03-07-2019 20:05:00 22.8 C 41 % 8.87 C
243 03-07-2019 20:10:00 22.7 C 41 % 8.78 C
244 03-07-2019 20:15:00 22.6 C 42 % 9.05 C
245 03-07-2019 20:20:00 22.6 C 41 % 8.69 C
246 03-07-2019 20:25:00 22.4 C 41 % 8.51 C
247 03-07-2019 20:30:00 22.2 C 42 % 8.69 C
248 03-07-2019 20:35:00 22.2 C 43 % 9.04 C
249 03-07-2019 20:40:00 22.2 C 43 % 9.04 C
250 03-07-2019 20:45:00 22.1 C 42 % 8.6 C
Sensor: Nr:Datum:Temp:Feuchte:Taupunkt:
Aussen-T/F 251 03-07-2019 20:50:00 21.9 C 43 % 8.76 C
252 03-07-2019 20:55:00 21.7 C 43 % 8.58 C
253 03-07-2019 21:00:00 21.4 C 43 % 8.31 C
254 03-07-2019 21:05:00 21.2 C 44 % 8.47 C
255 03-07-2019 21:10:00 21 C 45 % 8.62 C
256 03-07-2019 21:15:00 20.8 C 45 % 8.44 C
257 03-07-2019 21:20:00 20.6 C 46 % 8.58 C
258 03-07-2019 21:25:00 20.4 C 46 % 8.4 C
259 03-07-2019 21:30:00 20.3 C 46 % 8.31 C
260 03-07-2019 21:35:00 20.2 C 48 % 8.85 C
261 03-07-2019 21:40:00 20.1 C 47 % 8.45 C
262 03-07-2019 21:45:00 19.8 C 48 % 8.48 C
263 03-07-2019 21:50:00 19.7 C 49 % 8.7 C
264 03-07-2019 21:55:00 19.4 C 50 % 8.72 C
265 03-07-2019 22:00:00 19.1 C 50 % 8.44 C
266 03-07-2019 22:05:00 18.7 C 52 % 8.65 C
267 03-07-2019 22:10:00 18.3 C 52 % 8.28 C
268 03-07-2019 22:15:00 18 C 55 % 8.83 C
269 03-07-2019 22:20:00 17.7 C 54 % 8.28 C
270 03-07-2019 22:25:00 17.4 C 55 % 8.28 C
271 03-07-2019 22:30:00 17.3 C 56 % 8.45 C
272 03-07-2019 22:35:00 17.1 C 56 % 8.26 C
273 03-07-2019 22:40:00 16.9 C 57 % 8.34 C
274 03-07-2019 22:45:00 16.8 C 57 % 8.24 C
275 03-07-2019 22:50:00 16.7 C 58 % 8.4 C
Sensor: Nr:Datum:Temp:Feuchte:Taupunkt:
Aussen-T/F 276 03-07-2019 22:55:00 16.5 C 59 % 8.47 C
277 03-07-2019 23:00:00 16.3 C 59 % 8.28 C
278 03-07-2019 23:05:00 16.1 C 60 % 8.34 C
279 03-07-2019 23:10:00 15.9 C 60 % 8.15 C
280 03-07-2019 23:15:00 15.7 C 61 % 8.21 C
281 03-07-2019 23:20:00 15.6 C 61 % 8.11 C
282 03-07-2019 23:25:00 15.5 C 62 % 8.26 C
283 03-07-2019 23:30:00 15.4 C 62 % 8.16 C
284 03-07-2019 23:35:00 15.3 C 62 % 8.07 C
285 03-07-2019 23:40:00 15.1 C 63 % 8.12 C
286 03-07-2019 23:45:00 15 C 64 % 8.25 C
287 03-07-2019 23:50:00 14.9 C 64 % 8.16 C
288 03-07-2019 23:55:00 14.8 C 64 % 8.06 C

Legende:
   Min
   Max


Maximal/Minimal-Werte vom 03.07.2019 - 03.07.2019

Sensor Min Max Avg
Temp
(Aussen-T/F)
9.9 °C
03-07-2019  05:45:00
25.1 °C
03-07-2019  18:15:00
17.43 °C
Feuchte
(Aussen-T/F)
37 %
03-07-2019  17:25:00
89 %
03-07-2019  06:50:00
61.11 %
Taupunkt
(Aussen-T/F)
7.7 C
03-07-2019  05:20:00
10.89 C
03-07-2019  15:50:00
9.07 C

Die Daten stammen von einer Davis Vantage Pro 2 Wetter-Station und werden unter Linux mit der Software wview2wettercgi und aufbereitet. Alle Angaben erfolgen ohne Gewähr für ihre Vollständigkeit oder Richtigkeit.
Kontakt: Rainer Krienke krienke@uni-koblenz.de . Meine Webseiten an der Uni Koblenz oder privat.
Version: $Revision: 0.78 $